Starlink 1234

operational
NORAD ID: 45190 Int'l Des: 2020-012 Owner: SPXS Country: US Constellation: starlink
LEOCIRCULARSTARLINK_TYPE

Über Starlink 1234

Beschreibung wird geladen...

Live-Position

3D-Globus wird geladen...

Nächste Überflüge

Höhenverlauf

Altitude vs Time

uPlot chart will show altitude changes over time

Zweizeiliger Elementsatz

1 45190U 20012N 25352.24735670 .00116969 00000-0 24843-2 0 9990
2 45190 53.0514 357.9443 0008645 18.7636 341.3687 15.44119264323229
Epoch: 18. Dez. 2025 • Age: 9 hours

Aktueller Status

Höhe 448.2 km
Geschwindigkeit 7.64 km/s
Subsatellitenpunkt -29.46°S, 105.89°W
Startdatum 17. Feb. 2020
Alter 5.8 years
Typ internet

Technische Details

Klassifizierung Payload
Masse 260.00 kg
Trockenmasse 248.00 kg
Gesamtmasse 260.00 kg
Länge 0.20 m
Durchmesser 2.80 m
Spannweite 9.00 m
Form Box + pan
Hersteller SPXS
Bus-Typ Starlink
Phasenstatus In Orbit
Besitzer/Staat SPXS/US

Große Konstellationen

Loading constellations...